Simultaneous Nadir Overpasses (SNOs) Predictions

Prediction of SNOs between METOP-B and NOAA-19 Satellite Orbit:

Table of predicted SNOs for the next 14.0 days since TLE Epoch: 10/12/2024
Index Date (METOP-B) Time (METOP-B) Lat,Lon (METOP-B) SZA (METOP-B ) Date (NOAA-19) Time (NOAA-19) Lat,Lon (NOAA-19) SZA (NOAA-19 ) Distance(km) Time Diff (sec)
1 10/16/2024 16:19:24 77.92, 29.81 100.78 10/16/2024 16:18:15 77.93, 29.77 100.71 0.98 69
2 10/16/2024 17:10:00 -77.75,-162.05 79.03 10/16/2024 17:09:13 -77.77,-162.12 79.09 2.14 47
3 10/16/2024 18:00:37 77.57, 6.13 101.19 10/16/2024 18:00:03 77.55, 6.23 101.18 2.92 34
4 10/16/2024 18:51:12 -77.40, 174.22 78.62 10/16/2024 18:51:00 -77.39, 174.28 78.62 1.87 12
5 10/16/2024 19:41:50 77.25, -17.82 101.55 10/16/2024 19:41:52 77.25, -17.81 101.56 0.26 2
6 10/16/2024 20:32:25 -77.04, 150.41 78.21 10/16/2024 20:32:49 -77.04, 150.39 78.19 0.72 24
7 10/16/2024 21:23:04 76.93, -41.84 101.92 10/16/2024 21:23:42 76.95, -41.91 101.94 2.46 38
8 10/16/2024 22:13:36 -76.58, 126.85 77.71 10/16/2024 22:14:35 -76.56, 126.94 77.63 3.23 59



Historial Predications of SNOs between METOP-B and NOAA-19
